Weather History for Hutchinson, KS

Change the Weather History Date:

Monday, January 7, 2013

  Actual Average Record
Temperature  
Mean Temperature 40 °F -  
Max Temperature 53 °F 40 °F 73 °F (2006)
Min Temperature 26 °F 18 °F 3 °F (2002)
Degree Days  
Heating Degree Days 26    
Moisture  
Dew Point 23 °F    
Average Humidity 53    
Maximum Humidity 75    
Minimum Humidity 31    
Precipitation  
Precipitation 0.00 in - - ()
Sea Level Pressure  
Sea Level Pressure 30.09 in    
Wind  
Wind Speed 13 mph (South)    
Max Wind Speed 21 mph    
Max Gust Speed -    
Visibility 10 miles    
Events      
Averages and records for this station are not official NWS values.
T = Trace of Precipitation, MM = Missing Value Source: NWS Daily Summary

Daily Weather History Graph

Daily Weather History Graph

Search for Another Location

Airport:

Trip Planner

Search our weather history database for the weather conditions in past years. The results will help you decide how hot, cold, wet, or windy it might be!

Date:

Astronomy

Jan. 07, 2013 Rise Set
Actual Time 7:47 AM CST 5:28 PM CST
Civil Twilight 7:18 AM CST 5:57 PM CST
Nautical Twilight 6:46 AM CST 6:30 PM CST
Astronomical Twilight 6:14 AM CST 7:01 PM CST
Moon 3:14 AM CST (1/7) 1:39 PM CST (1/7)
Length of Visible Light 10h 38m
Length of Day
9h 40m
Waning Crescent, 22% of the Moon is Illuminated
Jan 7
Waning Crescent
Jan 11
New
Jan 18
First Quarter
Jan 26
Full
Feb 3
Last Quarter

Hourly Weather History & Observations

Time (CST) Temp. Windchill Dew Point Humidity Pressure Visibility Wind Dir Wind Speed Gust Speed Precip Events Conditions
12:52 AM 30.9 °F 22.2 °F 21.0 °F 67% 30.22 in 10.0 mi South 10.4 mph - N/A   Clear
2:52 AM 32.0 °F 22.5 °F 19.9 °F 61% 30.19 in 10.0 mi South 12.7 mph - N/A   Clear
3:52 AM 32.0 °F 23.0 °F 19.9 °F 61% 30.19 in 10.0 mi SSW 11.5 mph - N/A   Clear
4:52 AM 27.0 °F 18.7 °F 19.0 °F 72% 30.17 in 10.0 mi South 8.1 mph - N/A   Clear
5:52 AM 28.0 °F 20.0 °F 19.0 °F 69% 30.17 in 10.0 mi South 8.1 mph - N/A   Clear
6:52 AM 26.1 °F 17.6 °F 19.0 °F 75% 30.17 in 10.0 mi South 8.1 mph - N/A   Clear
7:52 AM 28.9 °F 21.1 °F 21.0 °F 72% 30.17 in 10.0 mi South 8.1 mph - N/A   Clear
8:52 AM 32.0 °F 22.5 °F 21.9 °F 66% 30.18 in 10.0 mi South 12.7 mph - N/A   Clear
9:52 AM 37.0 °F 27.7 °F 23.0 °F 57% 30.17 in 10.0 mi SSW 16.1 mph - N/A   Clear
10:52 AM 43.0 °F 35.1 °F 24.1 °F 47% 30.16 in 10.0 mi SSW 17.3 mph - N/A   Clear
11:52 AM 46.9 °F - 23.0 °F 39% 30.12 in 10.0 mi SSW 18.4 mph - N/A   Clear
12:52 PM 51.1 °F - 24.1 °F 35% 30.07 in 10.0 mi SSW 20.7 mph - N/A   Clear
1:52 PM 52.0 °F - 24.1 °F 34% 30.04 in 10.0 mi SSW 17.3 mph - N/A   Clear
2:52 PM 53.1 °F - 24.1 °F 32% 30.02 in 10.0 mi South 17.3 mph - N/A   Clear
3:52 PM 53.1 °F - 23.0 °F 31% 30.01 in 10.0 mi South 17.3 mph - N/A   Clear
4:52 PM 50.0 °F - 23.0 °F 35% 30.01 in 10.0 mi South 11.5 mph - N/A   Clear
5:52 PM 46.9 °F - 23.0 °F 39% 30.01 in 10.0 mi South 12.7 mph - N/A   Clear
6:52 PM 45.0 °F 38.5 °F 23.0 °F 42% 30.02 in 10.0 mi South 13.8 mph - N/A   Clear
7:52 PM 43.0 °F 35.7 °F 24.1 °F 47% 30.02 in 10.0 mi South 15.0 mph - N/A   Clear
8:52 PM 41.0 °F 33.1 °F 25.0 °F 53% 30.01 in 10.0 mi South 15.0 mph - N/A   Clear
9:52 PM 39.0 °F 31.8 °F 25.0 °F 57% 30.01 in 10.0 mi South 11.5 mph - N/A   Clear
10:52 PM 37.9 °F 30.0 °F 25.0 °F 60% 30.00 in 10.0 mi South 12.7 mph - N/A   Clear
11:52 PM 37.0 °F 28.5 °F 24.1 °F 59% 29.99 in 10.0 mi South 13.8 mph - N/A   Clear